318  
ASUS44 KEWX 020613  
RWREWX  
SOUTH TEXAS REGIONAL WEATHER ROUNDUP  
NATIONAL WEATHER SERVICE AUSTIN/SAN ANTONIO TX  
1200 AM CST FRI DEC 02 2022  
 
NOTE: "FAIR" INDICATED FEW OR NO CLOUDS BELOW 12,000 FEET WITH NO  
SIGNIFICANT WEATHER AND/OR S TO VISIBILITY
.  
 
* - THESE STATIONS ARE NOT NWS OR FAA STATIONS...AND ARE NOT SUBJECT  
TO NWS AND FAA QUALITY CONTROL.
 
 
TXZ171-172-183>190-020700-  
TEXAS HILL COUNTRY AND EDWARDS PLATEAU  
 
CITY SKY/WX TMP DP RH WIND PRES REMARKS
 
JUNCTION CLOUDY 54 52 93 S7 30.18F  
6HR MIN TEMP: 54; 6HR MAX TEMP: 56;  
 
*LLANO MIX PCPN 48 46 93 SE3 30.20F FOG  
BURNET CLOUDY 48 48 100 CALM 30.22S FOG  
6HR MIN TEMP: 47; 6HR MAX TEMP: 49; 6HR PCP: 0.02;  
 
*HORSESHOE BAY CLOUDY 48 48 99 CALM 30.21S FOG  
6HR MIN TEMP: 48; 6HR MAX TEMP: 50;  
 
*LAGO VISTA FOG 48 48 99 CALM 30.20S VSB 1/2  
6HR MIN TEMP: 47; 6HR MAX TEMP: 48; 6HR PCP: 0.01;  
 
*KERRVILLE FOG 48 48 99 CALM 30.19F VSB 1  
6HR MIN TEMP: 47; 6HR MAX TEMP: 50; 6HR PCP: 0.03;  
 
*FREDERICKSBRG CLOUDY 48 47 98 CALM 30.20R FOG  
6HR MIN TEMP: 47; 6HR MAX TEMP: 49; 6HR PCP: 0.01;  
 
*ROCKSPRINGS FOG 50 48 93 SE10 30.21F VSB 1/4 WCI 46  
*BOERNE CLOUDY 46 46 100 CALM 30.19F VSB 1/2  
*CASTROVILLE FOG 52 52 100 CALM 30.21F VSB 1  
HONDO CLOUDY 50 50 100 CALM 30.20F FOG  
6HR MIN TEMP: 49; 6HR MAX TEMP: 50; 6HR PCP: 0.02;  
 
*UVALDE CLOUDY 49 49 100 CALM 30.23F FOG  
6HR MIN TEMP: 47; 6HR MAX TEMP: 49;  
 
DEL RIO CLOUDY 52 49 89 SE12 30.17F  
6HR MIN TEMP: 52; 6HR MAX TEMP: 56;  
 
*LAUGHLIN AFB CLOUDY 50 48 93 SE12 30.15F WCI 46  
6HR MIN TEMP: 49; 6HR MAX TEMP: 53; 6HR PCP: TRACE;  
 
*SPOFFORD CLOUDY 49 49 100 SE8 30.18F WCI 45  
6HR MIN TEMP: 49; 6HR MAX TEMP: 52; 6HR PCP: TRACE;  
 
CARRIZO SPRGS CLOUDY 48 48 100 E3 30.20F FOG  
*FAITH RANCH FOG 50 50 100 CALM 30.21F VSB 1  

 
 
TXZ173-191>194-202-209-217>225-228-020700-  
CENTRAL AND SOUTH CENTRAL TEXAS  
 
CITY SKY/WX TMP DP RH WIND PRES REMARKS
 
GEORGETOWN CLOUDY 50 49 96 E3 30.23S FOG  
6HR MIN TEMP: 50; 6HR MAX TEMP: 52; 6HR PCP: 0.01;  
 
*TAYLOR CLOUDY 52 48 86 SE3 30.21F  
6HR MIN TEMP: 52; 6HR MAX TEMP: 54;  
 
AUSTIN/BERGSTM LGT RAIN 51 51 100 CALM 30.20F FOG  
6HR MIN TEMP: 51; 6HR MAX TEMP: 54; 6HR PCP: 0.01;  
 
AUSTIN/MABRY LGT RAIN 52 51 97 CALM 30.21F FOG  
6HR MIN TEMP: 51; 6HR MAX TEMP: 53; 6HR PCP: 0.01;  
 
*PFLUGERVILLE LGT RAIN 50 50 100 CALM 30.20F  
SAN MARCOS LGT RAIN N/A N/A N/A CALM N/A  
6HR PCP: 0.01;  
 
NEW BRAUNFELS LGT RAIN 52 50 93 CALM 30.18F FOG  
6HR MIN TEMP: 52; 6HR MAX TEMP: 53; 6HR PCP: TRACE;  
 
*RANDOLPH AFB CLOUDY 51 50 99 CALM 30.16F  
6HR MIN TEMP: 49; 6HR MAX TEMP: 51; 6HR PCP: TRACE;  
 
*SEGUIN LGT RAIN 51 51 99 CALM 30.18F FOG  
6HR MIN TEMP: 51; 6HR MAX TEMP: 53; 6HR PCP: TRACE;  
 
SAN ANTONIO LGT RAIN 50 49 96 CALM 30.19F FOG  
6HR MIN TEMP: 48; 6HR MAX TEMP: 50; 6HR PCP: 0.01;  
 
STINSON FIELD CLOUDY 52 51 97 E3 30.17F  
6HR MIN TEMP: 50; 6HR MAX TEMP: 52; 6HR PCP: TRACE;  
 
*KELLY FIELD CLOUDY 50 50 100 E3 30.17F FOG  
6HR MIN TEMP: 48; 6HR MAX TEMP: 50; 6HR PCP: TRACE;  
 
*PLEASANTON CLOUDY 53 50 90 CALM 30.20F  
6HR MIN TEMP: 50; 6HR MAX TEMP: 53;  
 
*KENEDY NOT AVBL  
*LA GRANGE CLOUDY 55 54 97 SE5 30.19F  
*GIDDINGS CLOUDY 55 49 81 SE3 30.20F  
6HR MIN TEMP: 55; 6HR MAX TEMP: 56;  
 
*GONZALES CLOUDY 55 54 97 CALM 30.19F FOG  
6HR MIN TEMP: 55; 6HR MAX TEMP: 58; 6HR PCP: 0.01;  
 

 
 
TXZ163>164-176>182-195>201-210>213-226-227-235-020700-  
SOUTHEAST TEXAS  
 
CITY SKY/WX TMP DP RH WIND PRES REMARKS
 
COLLEGE STN CLOUDY 57 44 62 E7 30.20F  
6HR MIN TEMP: 55; 6HR MAX TEMP: 57;  
 
*BRYAN CLOUDY 55 44 66 E8 30.23F  
6HR MIN TEMP: 53; 6HR MAX TEMP: 56;  
 
*CALDWELL CLOUDY 55 44 66 E3 30.22S  
6HR MIN TEMP: 54; 6HR MAX TEMP: 56;  
 
*CROCKETT N/A N/A N/A N/A MISG N/A  
*BRENHAM CLOUDY 58 50 75 SE7 N/A  
6HR MIN TEMP: 57; 6HR MAX TEMP: 58;  
 
HUNTSVILLE CLOUDY 56 39 53 VRB5 30.23S  
6HR MIN TEMP: 50; 6HR MAX TEMP: 57;  
 
CONROE CLOUDY 53 41 63 SE6 30.24F  
6HR MIN TEMP: 46; 6HR MAX TEMP: 53;  
 
HOUSTON BUSH CLOUDY 54 45 71 E10 30.24F  
6HR MIN TEMP: 50; 6HR MAX TEMP: 56;  
 
HOUSTON HOBBY CLOUDY 58 51 78 E9 30.23S  
6HR MIN TEMP: 56; 6HR MAX TEMP: 57;  
 
*HOUSTON SW AP CLOUDY 57 54 88 E3 30.24S  
6HR MIN TEMP: 55; 6HR MAX TEMP: 57;  
 
PEARLAND CLOUDY 57 52 83 E10 30.24F  
6HR MIN TEMP: 56; 6HR MAX TEMP: 57;  
 
HOUSTON HOOKS CLOUDY 56 44 64 E7 30.23F  
6HR MIN TEMP: 56; 6HR MAX TEMP: 58;  
 
ELLINGTON FLD MOCLDY 57 52 82 E8 30.23F  
SUGAR LAND CLOUDY 57 51 80 E10 30.22S  
6HR MIN TEMP: 57; 6HR MAX TEMP: 58;  
 
*HOUSTON EXEC CLOUDY 57 52 82 E12G20 30.23F  
*CLEVELAND MUN CLOUDY N/A N/A N/A MISG 30.26F  
*WHARTON CLOUDY 57 57 100 E8 30.21F  
6HR MIN TEMP: 56; 6HR MAX TEMP: 57;  
 
*COLUMBUS CLOUDY 56 52 86 E6 30.21F  
6HR MIN TEMP: 56; 6HR MAX TEMP: 58;  
 
*EAGLE LAKE CLOUDY 57 54 89 E8 30.21S  
6HR MIN TEMP: 57; 6HR MAX TEMP: 58;  
 

 
 
TXZ214>216-236>238-020700-  
THE UPPER TEXAS COAST  
 
CITY SKY/WX TMP DP RH WIND PRES REMARKS
 
*ORANGE PTCLDY 51 39 64 E7 30.27F  
6HR MIN TEMP: 48; 6HR MAX TEMP: 56;  
 
PORT ARTHUR PTCLDY 51 42 71 E7 30.25F  
6HR MIN TEMP: 47; 6HR MAX TEMP: 51;  
 
GALVESTON CLOUDY 63 57 81 E12 30.23F  
6HR MIN TEMP: 58; 6HR MAX TEMP: 63;  
 
ANGLETON CLOUDY 60 57 89 NE8 30.21F  
6HR MIN TEMP: 56; 6HR MAX TEMP: 61;  
 
*BAY CITY CLOUDY 61 59 92 E10 30.21S FOG  
PALACIOS CLOUDY 63 62 97 E17 30.18F  
6HR MIN TEMP: 58; 6HR MAX TEMP: 63; 6HR PCP: TRACE;  
 

 
 
TXZ229>234-239>247-020700-  
TEXAS COASTAL BEND AND RIO GRANDE PLAINS  
 
CITY SKY/WX TMP DP RH WIND PRES REMARKS
 
VICTORIA CLOUDY 58 56 93 E6 30.17F  
6HR MIN TEMP: 58; 6HR MAX TEMP: 59;  
 
*BEEVILLE N/A 55 54 95 NE6 30.16F  
6HR MIN TEMP: 54; 6HR MAX TEMP: 58;  
 
ROCKPORT LGT RAIN 66 66 100 VRB5 30.14F  
6HR MIN TEMP: 60; 6HR MAX TEMP: 66; 6HR PCP: TRACE;  
 
*PORT ARANSAS CLOUDY 67 67 98 SE3 30.16F FOG  
6HR MIN TEMP: 62; 6HR MAX TEMP: 69; 6HR PCP: 0.01;  
 
*PORT LAVACA CLOUDY 65 62 91 E13 30.18S FOG  
6HR MIN TEMP: 61; 6HR MAX TEMP: 65;  
 
*INGLESIDE CLOUDY 65 63 94 N6 30.13F  
CORPUS CHRISTI LGT RAIN 60 60 100 N9 30.15F FOG  
6HR MIN TEMP: 59; 6HR MAX TEMP: 62; 6HR PCP: 0.09;  
 
CORPUS NAS LGT RAIN N/A N/A N/A NW6 30.14F  
6HR PCP: 0.41;  
 
*ROBSTOWN CLOUDY 59 59 100 MISG 30.16F  
6HR MIN TEMP: 59; 6HR MAX TEMP: 60;  
 
ALICE CLOUDY 56 56 100 N7 30.16F FOG  
6HR MIN TEMP: 56; 6HR MAX TEMP: 58; 6HR PCP: TRACE;  
 
KINGSVILLE NAS DRIZZLE 60 60 100 N8 30.16F FOG  
6HR MIN TEMP: 58; 6HR MAX TEMP: 60; 6HR PCP: TRACE;  
 
COTULLA CLOUDY 51 49 92 NW3 30.20S FOG  
6HR MIN TEMP: 50; 6HR MAX TEMP: 51; 6HR  
 
CLICK HERE TO GO TO PREVIOUS BULLETINS.

The Nexlab TX Page Main Text Page